Location: Brantley
(31.5822°N, 86.2569°W)
Time: 02:49:43
(UTC+00:00)

Courier 1B Rocket - Pass Details

Date: 22 February 2026
Orbit: 920 x 1201 km, 28.2° (Epoch: 7 March)

Event Time Altitude Azimuth Distance (km) Brightness Sun altitude
Rises 03:32:58 0° 273° (W) 3,564 8.5 -50.1°
Enters shadow 03:34:55 - 268° (W) 2,885 7.9 -50.5°
Reaches altitude 10° 03:35:39 10° 266° (W) 2,639 - -50.7°
Maximum altitude 03:41:35 42° 197° (SSW) 1,342 - -51.8°
Drops below altitude 10° 03:47:50 10° 128° (SE) 2,783 - -53.0°
Sets 03:50:45 0° 122° (ESE) 3,779 - -53.5°
